{"data":{"norad_id":59797,"epoch":"2026-09-21T02:54:20.279520Z","epoch_age_seconds":120770,"freshness":"FRESH","line1":"1 59797U 24093R   26264.12106805  .00000655  00000+0  33326-4 0  9994","line2":"2 59797  43.0027 185.2425 0001274 269.3734  90.6972 15.27581047132582","mean_motion":15.27581047,"eccentricity":0.0001274,"inclination_deg":43.0027,"raan_deg":185.2425,"arg_perigee_deg":269.3734,"mean_anomaly_deg":90.6972,"bstar":3.3326e-5,"rev_number":13258,"period_min":94.266684103472,"perigee_km":482.17184623756,"apogee_km":483.92007565601,"semimajor_km":6861.1829609468,"source":"CELESTRAK","updated_at":"2026-09-22T09:00:49.073894Z"}}